Regional Weather Roundup
Issued by NWS

Home | Current Version | Previous Version | Text Only | Print | Product List | Glossary Off
Versions: 1 2 3 4 5 6 7 8 9 10 11 12 13 14 15 16 17 18 19 20 21 22 23 24 25 26 27

000
ASUS45 KBOI 230210
RWRID

IDAHO REGIONAL WEATHER ROUNDUP
NATIONAL WEATHER SERVICE BOISE ID
700 PM MST WED NOV 22 2017

NOTE: "FAIR" INDICATES FEW OR NO CLOUDS BELOW 12000 FEET
WITH NO SIGNIFICANT WEATHER AND/OR OBSTRUCTIONS TO VISIBILITY

IDZ012-014-230300-
SOUTHWEST IDAHO


CITY           SKY/WX    TMP DP  RH WIND       PRES   REMARKS
BOISE          CLOUDY    54  51  90 CALM      30.23S
CALDWELL       CLOUDY    50  49  96 W5        30.24R FOG
MOUNTAIN HOME  CLOUDY    55  55 100 E10       30.23S
$$

IDZ016-017-230300-
SOUTHCENTRAL IDAHO


CITY           SKY/WX    TMP DP  RH WIND       PRES   REMARKS
BURLEY         MOCLDY    50  44  80 SE3       30.29F
JEROME         MOCLDY    54  43  66 E8        30.30S
TWIN FALLS     MOCLDY    49  45  86 SE6       30.30S
$$

IDZ019>023-230300-
SOUTHEAST IDAHO


CITY           SKY/WX    TMP DP  RH WIND       PRES   REMARKS
IDAHO FALLS    CLOUDY    42  41  96 N6        30.36F
POCATELLO      CLOUDY    56  42  59 S9        30.33S
REXBURG        CLOUDY    42  41  96 E5        30.35F
$$

IDZ006-010-011-018-031-032-230300-
CENTRAL IDAHO MOUNTAINS


CITY           SKY/WX    TMP DP  RH WIND       PRES   REMARKS
MCCALL         CLOUDY    44  43  96 NE7       30.27R
STANLEY          N/A     39  36  89 S7        30.37S WCI  34
SALMON         CLOUDY    41  40  96 CALM      30.32R FOG
CHALLIS        CLOUDY    46  41  82 CALM      30.30R
$$

IDZ002-004-006-007-026-230300-
NORTHERN IDAHO


CITY           SKY/WX    TMP DP  RH WIND       PRES   REMARKS
LEWISTON       PTCLDY    54  52  93 NE3       30.08S
LOWELL           N/A     45  45 100 CALM      30.21S
COEUR D`ALENE  MOCLDY    55  52  89 S8        30.06F
MULLAN PASS    FOG       42  40  92 VRB6      30.17F VSB 1/4
$$




USA.gov is the U.S. government's official web portal to all federal, state and local government web resources and services.